DELTA 1 DEB, 26846

Orbit data source: Space-Track

DELTA 1 DEB, 26846 is space debris in SSO originally from a launch on Thu, 12 Jun 1975 UTC launched from the Air Force Western Test Range (AFWTR). Debris objects in space refer to the collection of defunct objects orbiting the Earth. Examples of debris include non-operational satellites, rocket bodies, and fragments generated from explosions, collisions, or faulty payload assembly.

Loading next visibility...
Identifier
26846, 1975-052LA
Orbit
SSO
Country
Flag of USUS
Related business
Manufacturer
Unknown
Mission
Spacecraft
Bus & Motor
Unknown
Mass
Unknown
Launch date (UTC)
1975-06-12 (51 years ago)
Launch vehicle
Unknown
Launch site
Air Force Western Test Range (AFWTR)
Object type
Payload
Rocket body
Debris
Shape & HBR
Unknown shape, 0.1 m
Radar Cross Section
Small (<0.1 m²)

Expand to show TLE details & history
Last TLE update: 17 hours ago

TLE from 17 hours ago
0 DELTA 1 DEB
1 26846U 75052LA  25348.82287302  .00000149  00000-0  48471-3 0  9990
2 26846  99.7710  38.8694 0169230   0.7381  49.7655 13.12825246372247
Epoch: 2025-12-14T19:44Z
TLE epoch observation values (Epoch: 2025-12-14T19:44:56.228Z)
Latitude
51.04954°
Longitude
6.66834°
Altitude
1,138.633 km
Speed
7.327 km/s
True Right ascension
01h 46m 31s
True Declination
50° 53' 23"
Sunlit
Object was in full shadow at epoch
Visualization orbit readout
Latitude
Unknown
Longitude
Unknown
Altitude
Unknown
Speed
Unknown
Apparent Right ascension
Unknown
Apparent Declination
Unknown
Sunlit
N/A
Visualization observer readout
Local Sidereal Time
11:44:06
Azimuth
Unknown
Elevation
Unknown
Doppler factor
Unknown
Orbital elements
Apogee altitude
1,338.011 km
Perigee altitude
1,081.196 km
Semi-major axis
7,587.74 km
Eccentricity
0.01692
Inclination
99.771°
RAAN
38.8694°
Arg. of periapsis
0.7381°
True anomaly
51.26625°
Mean anomaly
49.7655°
Eccentric anomaly
50.51383°
Mean motion
3.28378 °/min
Orbital period
109.63 mins
BSTAR
0.00048471
Loading maneuver chart data...
Computing Atmospheric mass density...

Documentation

Showing up to 5 results
|